Year,Month,Day,Hour,Minute,Value (Times are PST for temperature in C)
2016,04,20,00,00,15.10
2016,04,20,00,01,15.10
2016,04,20,00,02,15.10
2016,04,20,00,03,15.10
2016,04,20,00,04,15.10
2016,04,20,00,05,15.10
2016,04,20,00,06,15.10
2016,04,20,00,07,15.00
2016,04,20,00,08,15.00
2016,04,20,00,09,15.10
2016,04,20,00,10,15.10
2016,04,20,00,11,15.10
2016,04,20,00,12,15.10
2016,04,20,00,13,15.10
2016,04,20,00,14,15.10
2016,04,20,00,15,15.10
2016,04,20,00,16,15.20
2016,04,20,00,17,15.20
2016,04,20,00,18,15.20
2016,04,20,00,19,15.20
2016,04,20,00,20,15.20
2016,04,20,00,21,15.20
2016,04,20,00,22,15.20
2016,04,20,00,23,15.20
2016,04,20,00,24,15.20
2016,04,20,00,25,15.10
2016,04,20,00,26,15.10
2016,04,20,00,27,15.10
2016,04,20,00,28,15.00
2016,04,20,00,29,15.00
2016,04,20,00,30,15.00
2016,04,20,00,31,15.00
2016,04,20,00,32,15.00
2016,04,20,00,33,15.10
2016,04,20,00,34,15.10
2016,04,20,00,35,15.10
2016,04,20,00,36,15.10
2016,04,20,00,37,15.20
2016,04,20,00,38,15.20
2016,04,20,00,39,15.20
2016,04,20,00,40,15.30
2016,04,20,00,41,15.30
2016,04,20,00,42,15.30
2016,04,20,00,43,15.30
2016,04,20,00,44,15.30
2016,04,20,00,45,15.40
2016,04,20,00,46,15.40
2016,04,20,00,47,15.40
2016,04,20,00,48,15.40
2016,04,20,00,49,15.40
2016,04,20,00,50,15.50
2016,04,20,00,51,15.50
2016,04,20,00,52,15.50
2016,04,20,00,53,15.50
2016,04,20,00,54,15.50
2016,04,20,00,55,15.50
2016,04,20,00,56,15.50
2016,04,20,00,57,15.50
2016,04,20,00,58,15.50
2016,04,20,00,59,15.50
2016,04,20,01,00,15.50
2016,04,20,01,01,15.50
2016,04,20,01,02,15.40
2016,04,20,01,03,15.40
2016,04,20,01,04,15.40
2016,04,20,01,05,15.40
2016,04,20,01,06,15.40
2016,04,20,01,07,15.40
2016,04,20,01,08,15.40
2016,04,20,01,09,15.40
2016,04,20,01,10,15.40
2016,04,20,01,11,15.30
2016,04,20,01,12,15.30
2016,04,20,01,13,15.30
2016,04,20,01,14,15.20
2016,04,20,01,15,15.20
2016,04,20,01,16,15.20
2016,04,20,01,17,15.10
2016,04,20,01,18,15.10
2016,04,20,01,19,15.00
2016,04,20,01,20,15.00
2016,04,20,01,21,15.00
2016,04,20,01,22,15.00
2016,04,20,01,23,15.00
2016,04,20,01,24,15.00
2016,04,20,01,25,14.90
2016,04,20,01,26,14.90
2016,04,20,01,27,14.90
2016,04,20,01,28,14.90
2016,04,20,01,29,14.90
2016,04,20,01,30,15.00
2016,04,20,01,31,15.00
2016,04,20,01,32,15.00
2016,04,20,01,33,15.00
2016,04,20,01,34,15.00
2016,04,20,01,35,15.10
2016,04,20,01,36,15.10
2016,04,20,01,37,15.10
2016,04,20,01,38,15.10
2016,04,20,01,39,15.00
2016,04,20,01,40,15.00
2016,04,20,01,41,15.00
2016,04,20,01,42,15.00
2016,04,20,01,43,15.10
2016,04,20,01,44,15.10
2016,04,20,01,45,15.10
2016,04,20,01,46,15.10
2016,04,20,01,47,15.00
2016,04,20,01,48,15.00
2016,04,20,01,49,15.00
2016,04,20,01,50,15.00
2016,04,20,01,51,15.00
2016,04,20,01,52,14.90
2016,04,20,01,53,14.90
2016,04,20,01,54,14.90
2016,04,20,01,55,14.90
2016,04,20,01,56,14.90
2016,04,20,01,57,14.90
2016,04,20,01,58,14.90
2016,04,20,01,59,14.90
2016,04,20,02,00,14.90
2016,04,20,02,01,15.00
2016,04,20,02,02,15.00
2016,04,20,02,03,15.10
2016,04,20,02,04,15.10
2016,04,20,02,05,15.10
2016,04,20,02,06,15.20
2016,04,20,02,07,15.20
2016,04,20,02,08,15.30
2016,04,20,02,09,15.30
2016,04,20,02,10,15.30
2016,04,20,02,11,15.30
2016,04,20,02,12,15.40
2016,04,20,02,13,15.40
2016,04,20,02,14,15.50
2016,04,20,02,15,15.50
2016,04,20,02,16,15.60
2016,04,20,02,17,15.60
2016,04,20,02,18,15.60
2016,04,20,02,19,15.60
2016,04,20,02,20,15.70
2016,04,20,02,21,15.70
2016,04,20,02,22,15.70
2016,04,20,02,23,15.70
2016,04,20,02,24,15.70
2016,04,20,02,25,15.70
2016,04,20,02,26,15.70
2016,04,20,02,27,15.80
2016,04,20,02,28,15.80
2016,04,20,02,29,15.80
2016,04,20,02,30,15.80
2016,04,20,02,31,15.80
2016,04,20,02,32,15.90
2016,04,20,02,33,15.90
2016,04,20,02,34,15.90
2016,04,20,02,35,15.90
2016,04,20,02,36,15.90
2016,04,20,02,37,15.90
2016,04,20,02,38,15.90
2016,04,20,02,39,16.00
2016,04,20,02,40,15.90
2016,04,20,02,41,15.90
2016,04,20,02,42,15.90
2016,04,20,02,43,15.90
2016,04,20,02,44,15.90
2016,04,20,02,45,15.90
2016,04,20,02,46,15.90
2016,04,20,02,47,15.90
2016,04,20,02,48,15.90
2016,04,20,02,49,15.90
2016,04,20,02,50,15.90
2016,04,20,02,51,15.90
2016,04,20,02,52,15.90
2016,04,20,02,53,15.80
2016,04,20,02,54,15.80
2016,04,20,02,55,15.80
2016,04,20,02,56,15.80
2016,04,20,02,57,15.80
2016,04,20,02,58,15.80
2016,04,20,02,59,15.80
2016,04,20,03,00,15.80
2016,04,20,03,01,15.80
2016,04,20,03,02,15.80
2016,04,20,03,03,15.80
2016,04,20,03,04,15.90
2016,04,20,03,05,15.90
2016,04,20,03,06,15.90
2016,04,20,03,07,15.90
2016,04,20,03,08,15.80
2016,04,20,03,09,15.80
2016,04,20,03,10,15.80
2016,04,20,03,11,15.70
2016,04,20,03,12,15.70
2016,04,20,03,13,15.70
2016,04,20,03,14,15.70
2016,04,20,03,15,15.60
2016,04,20,03,16,15.60
2016,04,20,03,17,15.50
2016,04,20,03,18,15.50
2016,04,20,03,19,15.50
2016,04,20,03,20,15.40
2016,04,20,03,21,15.50
2016,04,20,03,22,15.50
2016,04,20,03,23,15.50
2016,04,20,03,24,15.50
2016,04,20,03,25,15.50
2016,04,20,03,26,15.50
2016,04,20,03,27,15.50
2016,04,20,03,28,15.50
2016,04,20,03,29,15.40
2016,04,20,03,30,15.40
2016,04,20,03,31,15.40
2016,04,20,03,32,15.40
2016,04,20,03,33,15.40
2016,04,20,03,34,15.30
2016,04,20,03,35,15.30
2016,04,20,03,36,15.30
2016,04,20,03,37,15.30
2016,04,20,03,38,15.30
2016,04,20,03,39,15.30
2016,04,20,03,40,15.30
2016,04,20,03,41,15.30
2016,04,20,03,42,15.30
2016,04,20,03,43,15.30
2016,04,20,03,44,15.30
2016,04,20,03,45,15.40
2016,04,20,03,46,15.40
2016,04,20,03,47,15.40
2016,04,20,03,48,15.40
2016,04,20,03,49,15.40
2016,04,20,03,50,15.50
2016,04,20,03,51,15.50
2016,04,20,03,52,15.50
2016,04,20,03,53,15.50
2016,04,20,03,54,15.50
2016,04,20,03,55,15.50
2016,04,20,03,56,15.50
2016,04,20,03,57,15.60
2016,04,20,03,58,15.60
2016,04,20,03,59,15.60
2016,04,20,04,00,15.60
2016,04,20,04,01,15.60
2016,04,20,04,02,15.60
2016,04,20,04,03,15.60
2016,04,20,04,04,15.70
2016,04,20,04,05,15.70
2016,04,20,04,06,15.70
2016,04,20,04,07,15.70
2016,04,20,04,08,15.70
2016,04,20,04,09,15.70
2016,04,20,04,10,15.70
2016,04,20,04,11,15.60
2016,04,20,04,12,15.60
2016,04,20,04,13,15.50
2016,04,20,04,14,15.40
2016,04,20,04,15,15.30
2016,04,20,04,16,15.30
2016,04,20,04,17,15.20
2016,04,20,04,18,15.10
2016,04,20,04,19,15.10
2016,04,20,04,20,15.00
2016,04,20,04,21,14.90
2016,04,20,04,22,14.90
2016,04,20,04,23,14.90
2016,04,20,04,24,14.90
2016,04,20,04,25,14.90
2016,04,20,04,26,14.80
2016,04,20,04,27,14.80
2016,04,20,04,28,14.70
2016,04,20,04,29,14.70
2016,04,20,04,30,14.60
2016,04,20,04,31,14.60
2016,04,20,04,32,14.50
2016,04,20,04,33,14.40
2016,04,20,04,34,14.40
2016,04,20,04,35,14.40
2016,04,20,04,36,14.40
2016,04,20,04,37,14.40
2016,04,20,04,38,14.40
2016,04,20,04,39,14.40
2016,04,20,04,40,14.40
2016,04,20,04,41,14.40
2016,04,20,04,42,14.40
2016,04,20,04,43,14.40
2016,04,20,04,44,14.40
2016,04,20,04,45,14.40
2016,04,20,04,46,14.40
2016,04,20,04,47,14.40
2016,04,20,04,48,14.50
2016,04,20,04,49,14.50
2016,04,20,04,50,14.50
2016,04,20,04,51,14.60
2016,04,20,04,52,14.60
2016,04,20,04,53,14.60
2016,04,20,04,54,14.60
2016,04,20,04,55,14.60
2016,04,20,04,56,14.60
2016,04,20,04,57,14.60
2016,04,20,04,58,14.60
2016,04,20,04,59,14.60
2016,04,20,05,00,14.60
2016,04,20,05,01,14.60
2016,04,20,05,02,14.50
2016,04,20,05,03,14.50
2016,04,20,05,04,14.50
2016,04,20,05,05,14.40
2016,04,20,05,06,14.40
2016,04,20,05,07,14.40
2016,04,20,05,08,14.40
2016,04,20,05,09,14.30
2016,04,20,05,10,14.30
2016,04,20,05,11,14.30
2016,04,20,05,12,14.30
2016,04,20,05,13,14.20
2016,04,20,05,14,14.20
2016,04,20,05,15,14.20
2016,04,20,05,16,14.20
2016,04,20,05,17,14.20
2016,04,20,05,18,14.10
2016,04,20,05,19,14.10
2016,04,20,05,20,14.00
2016,04,20,05,21,14.00
2016,04,20,05,22,13.90
2016,04,20,05,23,13.90
2016,04,20,05,24,13.90
2016,04,20,05,25,13.90
2016,04,20,05,26,13.80
2016,04,20,05,27,13.80
2016,04,20,05,28,13.80
2016,04,20,05,29,13.80
2016,04,20,05,30,13.70
2016,04,20,05,31,13.70
2016,04,20,05,32,13.70
2016,04,20,05,33,13.70
2016,04,20,05,34,13.60
2016,04,20,05,35,13.60
2016,04,20,05,36,13.60
2016,04,20,05,37,13.60
2016,04,20,05,38,13.60
2016,04,20,05,39,13.60
2016,04,20,05,40,13.60
2016,04,20,05,41,13.60
2016,04,20,05,42,13.60
2016,04,20,05,43,13.60
2016,04,20,05,44,13.60
2016,04,20,05,45,13.70
2016,04,20,05,46,13.70
2016,04,20,05,47,13.70
2016,04,20,05,48,13.70
2016,04,20,05,49,13.70
2016,04,20,05,50,13.70
2016,04,20,05,51,13.70
2016,04,20,05,52,13.70
2016,04,20,05,53,13.70
2016,04,20,05,54,13.70
2016,04,20,05,55,13.70
2016,04,20,05,56,13.70
2016,04,20,05,57,13.70
2016,04,20,05,58,13.70
2016,04,20,05,59,13.70
2016,04,20,06,00,13.70
2016,04,20,06,01,13.70
2016,04,20,06,02,13.70
2016,04,20,06,03,13.70
2016,04,20,06,04,13.70
2016,04,20,06,05,13.60
2016,04,20,06,06,13.60
2016,04,20,06,07,13.60
2016,04,20,06,08,13.50
2016,04,20,06,09,13.50
2016,04,20,06,10,13.40
2016,04,20,06,11,13.40
2016,04,20,06,12,13.40
2016,04,20,06,13,13.40
2016,04,20,06,14,13.30
2016,04,20,06,15,13.30
2016,04,20,06,16,13.30
2016,04,20,06,17,13.30
2016,04,20,06,18,13.30
2016,04,20,06,19,13.20
2016,04,20,06,20,13.20
2016,04,20,06,21,13.20
2016,04,20,06,22,13.20
2016,04,20,06,23,13.20
2016,04,20,06,24,13.20
2016,04,20,06,25,13.20
2016,04,20,06,26,13.20
2016,04,20,06,27,13.20
2016,04,20,06,28,13.20
2016,04,20,06,29,13.10
2016,04,20,06,30,13.10
2016,04,20,06,31,13.10
2016,04,20,06,32,13.10
2016,04,20,06,33,13.10
2016,04,20,06,34,13.10
2016,04,20,06,35,13.10
2016,04,20,06,36,13.10
2016,04,20,06,37,13.10
2016,04,20,06,38,13.10
2016,04,20,06,39,13.10
2016,04,20,06,40,13.00
2016,04,20,06,41,13.00
2016,04,20,06,42,13.00
2016,04,20,06,43,13.00
2016,04,20,06,44,12.90
2016,04,20,06,45,12.90
2016,04,20,06,46,12.90
2016,04,20,06,47,12.90
2016,04,20,06,48,12.90
2016,04,20,06,49,12.90
2016,04,20,06,50,12.90
2016,04,20,06,51,12.80
2016,04,20,06,52,12.80
2016,04,20,06,53,12.80
2016,04,20,06,54,12.80
2016,04,20,06,55,12.70
2016,04,20,06,56,12.70
2016,04,20,06,57,12.70
2016,04,20,06,58,12.70
2016,04,20,06,59,12.70
2016,04,20,07,00,12.70
2016,04,20,07,01,12.70
2016,04,20,07,02,12.70
2016,04,20,07,03,12.70
2016,04,20,07,04,12.70
2016,04,20,07,05,12.80
2016,04,20,07,06,12.80
2016,04,20,07,07,12.80
2016,04,20,07,08,12.80
2016,04,20,07,09,12.90
2016,04,20,07,10,12.90
2016,04,20,07,11,13.00
2016,04,20,07,12,13.10
2016,04,20,07,13,13.10
2016,04,20,07,14,13.20
2016,04,20,07,15,13.30
2016,04,20,07,16,13.40
2016,04,20,07,17,13.50
2016,04,20,07,18,13.60
2016,04,20,07,19,13.70
2016,04,20,07,20,13.80
2016,04,20,07,21,13.90
2016,04,20,07,22,14.00
2016,04,20,07,23,14.10
2016,04,20,07,24,14.20
2016,04,20,07,25,14.30
2016,04,20,07,26,14.40
2016,04,20,07,27,14.40
2016,04,20,07,28,14.50
2016,04,20,07,29,14.60
2016,04,20,07,30,14.70
2016,04,20,07,31,14.80
2016,04,20,07,32,14.90
2016,04,20,07,33,14.90
2016,04,20,07,34,15.00
2016,04,20,07,35,15.00
2016,04,20,07,36,15.10
2016,04,20,07,37,15.10
2016,04,20,07,38,15.20
2016,04,20,07,39,15.20
2016,04,20,07,40,15.20
2016,04,20,07,41,15.30
2016,04,20,07,42,15.30
2016,04,20,07,43,15.30
2016,04,20,07,44,15.30
2016,04,20,07,45,15.40
2016,04,20,07,46,15.40
2016,04,20,07,47,15.50
2016,04,20,07,48,15.50
2016,04,20,07,49,15.50
2016,04,20,07,50,15.60
2016,04,20,07,51,15.60
2016,04,20,07,52,15.60
2016,04,20,07,53,15.70
2016,04,20,07,54,15.70
2016,04,20,07,55,15.70
2016,04,20,07,56,15.70
2016,04,20,07,57,15.70
2016,04,20,07,58,15.80
2016,04,20,07,59,15.80
2016,04,20,08,00,15.80
2016,04,20,08,01,15.80
2016,04,20,08,02,15.80
2016,04,20,08,03,15.80
2016,04,20,08,04,15.80
2016,04,20,08,05,15.80
2016,04,20,08,06,15.80
2016,04,20,08,07,15.90
2016,04,20,08,08,15.90
2016,04,20,08,09,15.90
2016,04,20,08,10,15.90
2016,04,20,08,11,15.90
2016,04,20,08,12,15.90
2016,04,20,08,13,15.90
2016,04,20,08,14,15.90
2016,04,20,08,15,15.90
2016,04,20,08,16,15.90
2016,04,20,08,17,15.90
2016,04,20,08,18,16.00
2016,04,20,08,19,16.00
2016,04,20,08,20,16.00
2016,04,20,08,21,16.00
2016,04,20,08,22,16.10
2016,04,20,08,23,16.10
2016,04,20,08,24,16.10
2016,04,20,08,25,16.10
2016,04,20,08,26,16.10
2016,04,20,08,27,16.10
2016,04,20,08,28,16.10
2016,04,20,08,29,16.10
2016,04,20,08,30,16.10
2016,04,20,08,31,16.10
2016,04,20,08,32,16.10
2016,04,20,08,33,16.10
2016,04,20,08,34,16.10
2016,04,20,08,35,16.10
2016,04,20,08,36,16.10
2016,04,20,08,37,16.10
2016,04,20,08,38,16.10
2016,04,20,08,39,16.10
2016,04,20,08,40,16.10
2016,04,20,08,41,16.10
2016,04,20,08,42,16.20
2016,04,20,08,43,16.20
2016,04,20,08,44,16.20
2016,04,20,08,45,16.20
2016,04,20,08,46,16.20
2016,04,20,08,47,16.20
2016,04,20,08,48,16.20
2016,04,20,08,49,16.20
2016,04,20,08,50,16.20
2016,04,20,08,51,16.20
2016,04,20,08,52,16.20
2016,04,20,08,53,16.30
2016,04,20,08,54,16.30
2016,04,20,08,55,16.30
2016,04,20,08,56,16.30
2016,04,20,08,57,16.30
2016,04,20,08,58,16.40
2016,04,20,08,59,16.40
2016,04,20,09,00,16.40
2016,04,20,09,01,16.40
2016,04,20,09,02,16.40
2016,04,20,09,03,16.50
2016,04,20,09,04,16.50
2016,04,20,09,05,16.50
2016,04,20,09,06,16.60
2016,04,20,09,07,16.60
2016,04,20,09,08,16.60
2016,04,20,09,09,16.60
2016,04,20,09,10,16.60
2016,04,20,09,11,16.70
2016,04,20,09,12,16.70
2016,04,20,09,13,16.70
2016,04,20,09,14,16.70
2016,04,20,09,15,16.80
2016,04,20,09,16,16.80
2016,04,20,09,17,16.80
2016,04,20,09,18,16.80
2016,04,20,09,19,16.90
2016,04,20,09,20,16.90
2016,04,20,09,21,16.90
2016,04,20,09,22,16.90
2016,04,20,09,23,16.90
2016,04,20,09,24,17.00
2016,04,20,09,25,17.00
2016,04,20,09,26,17.00
2016,04,20,09,27,17.10
2016,04,20,09,28,17.10
2016,04,20,09,29,17.10
2016,04,20,09,30,17.10
2016,04,20,09,31,17.10
2016,04,20,09,32,17.10
2016,04,20,09,33,17.20
2016,04,20,09,34,17.20
2016,04,20,09,35,17.20
2016,04,20,09,36,17.20
2016,04,20,09,37,17.20
2016,04,20,09,38,17.20
2016,04,20,09,39,17.20
2016,04,20,09,40,17.20
2016,04,20,09,41,17.20
2016,04,20,09,42,17.20
2016,04,20,09,43,17.30
2016,04,20,09,44,17.30
2016,04,20,09,45,17.30
2016,04,20,09,46,17.30
2016,04,20,09,47,17.40
2016,04,20,09,48,17.40
2016,04,20,09,49,17.40
2016,04,20,09,50,17.40
2016,04,20,09,51,17.40
2016,04,20,09,52,17.50
2016,04,20,09,53,17.50
2016,04,20,09,54,17.50
2016,04,20,09,55,17.50
2016,04,20,09,56,17.50
2016,04,20,09,57,17.50
2016,04,20,09,58,17.50
2016,04,20,09,59,17.60
2016,04,20,10,00,17.60
2016,04,20,10,01,17.60
2016,04,20,10,02,17.60
2016,04,20,10,03,17.70
2016,04,20,10,04,17.70
2016,04,20,10,05,17.80
2016,04,20,10,06,17.80
2016,04,20,10,07,17.80
2016,04,20,10,08,17.90
2016,04,20,10,09,17.90
2016,04,20,10,10,17.90
2016,04,20,10,11,18.00
2016,04,20,10,12,18.00
2016,04,20,10,13,18.10
2016,04,20,10,14,18.10
2016,04,20,10,15,18.20
2016,04,20,10,16,18.20
2016,04,20,10,17,18.30
2016,04,20,10,18,18.30
2016,04,20,10,19,18.40
2016,04,20,10,20,18.40
2016,04,20,10,21,18.50
2016,04,20,10,22,18.60
2016,04,20,10,23,18.60
2016,04,20,10,24,18.60
2016,04,20,10,25,18.70
2016,04,20,10,26,18.70
2016,04,20,10,27,18.80
2016,04,20,10,28,18.80
2016,04,20,10,29,18.90
2016,04,20,10,30,18.90
2016,04,20,10,31,19.00
2016,04,20,10,32,19.10
2016,04,20,10,33,19.10
2016,04,20,10,34,19.20
2016,04,20,10,35,19.20
2016,04,20,10,36,19.20
2016,04,20,10,37,19.30
2016,04,20,10,38,19.30
2016,04,20,10,39,19.30
2016,04,20,10,40,19.30
2016,04,20,10,41,19.30
2016,04,20,10,42,19.40
2016,04,20,10,43,19.40
2016,04,20,10,44,19.40
2016,04,20,10,45,19.30
2016,04,20,10,46,19.40
2016,04,20,10,47,19.30
2016,04,20,10,48,19.30
2016,04,20,10,49,19.30
2016,04,20,10,50,19.40
2016,04,20,10,51,19.40
2016,04,20,10,52,19.40
2016,04,20,10,53,19.40
2016,04,20,10,54,19.40
2016,04,20,10,55,19.40
2016,04,20,10,56,19.50
2016,04,20,10,57,19.60
2016,04,20,10,58,19.60
2016,04,20,10,59,19.70
2016,04,20,11,00,19.70
2016,04,20,11,01,19.80
2016,04,20,11,02,19.80
2016,04,20,11,03,19.80
2016,04,20,11,04,19.80
2016,04,20,11,05,19.90
2016,04,20,11,06,19.90
2016,04,20,11,07,19.90
2016,04,20,11,08,20.00
2016,04,20,11,09,20.00
2016,04,20,11,10,20.10
2016,04,20,11,11,20.10
2016,04,20,11,12,20.10
2016,04,20,11,13,20.20
2016,04,20,11,14,20.20
2016,04,20,11,15,20.20
2016,04,20,11,16,20.20
2016,04,20,11,17,20.30
2016,04,20,11,18,20.30
2016,04,20,11,19,20.30
2016,04,20,11,20,20.40
2016,04,20,11,21,20.40
2016,04,20,11,22,20.40
2016,04,20,11,23,20.50
2016,04,20,11,24,20.60
2016,04,20,11,25,20.70
2016,04,20,11,26,20.80
2016,04,20,11,27,20.80
2016,04,20,11,28,20.80
2016,04,20,11,29,20.80
2016,04,20,11,30,20.70
2016,04,20,11,31,20.60
2016,04,20,11,32,20.70
2016,04,20,11,33,20.70
2016,04,20,11,34,20.70
2016,04,20,11,35,20.60
2016,04,20,11,36,20.60
2016,04,20,11,37,20.50
2016,04,20,11,38,20.40
2016,04,20,11,39,20.40
2016,04,20,11,40,20.40
2016,04,20,11,41,20.40
2016,04,20,11,42,20.50
2016,04,20,11,43,20.60
2016,04,20,11,44,20.60
2016,04,20,11,45,20.70
2016,04,20,11,46,20.70
2016,04,20,11,47,20.80
2016,04,20,11,48,20.80
2016,04,20,11,49,20.90
2016,04,20,11,50,20.90
2016,04,20,11,51,21.00
2016,04,20,11,52,21.00
2016,04,20,11,53,21.10
2016,04,20,11,54,21.20
2016,04,20,11,55,21.30
2016,04,20,11,56,21.40
2016,04,20,11,57,21.50
2016,04,20,11,58,21.60
2016,04,20,11,59,21.70
2016,04,20,12,00,21.80
2016,04,20,12,01,21.90
2016,04,20,12,02,21.90
2016,04,20,12,03,22.00
2016,04,20,12,04,22.00
2016,04,20,12,05,22.10
2016,04,20,12,06,22.10
2016,04,20,12,07,22.10
2016,04,20,12,08,22.10
2016,04,20,12,09,22.10
2016,04,20,12,10,22.20
2016,04,20,12,11,22.30
2016,04,20,12,12,22.30
2016,04,20,12,13,22.40
2016,04,20,12,14,22.40
2016,04,20,12,15,22.50
2016,04,20,12,16,22.50
2016,04,20,12,17,22.60
2016,04,20,12,18,22.60
2016,04,20,12,19,22.60
2016,04,20,12,20,22.60
2016,04,20,12,21,22.60
2016,04,20,12,22,22.70
2016,04,20,12,23,22.70
2016,04,20,12,24,22.70
2016,04,20,12,25,22.60
2016,04,20,12,26,22.60
2016,04,20,12,27,22.50
2016,04,20,12,28,22.50
2016,04,20,12,29,22.40
2016,04,20,12,30,22.40
2016,04,20,12,31,22.40
2016,04,20,12,32,22.40
2016,04,20,12,33,22.30
2016,04,20,12,34,22.20
2016,04,20,12,35,22.10
2016,04,20,12,36,22.10
2016,04,20,12,37,22.00
2016,04,20,12,38,22.10
2016,04,20,12,39,22.10
2016,04,20,12,40,22.20
2016,04,20,12,41,22.30
2016,04,20,12,42,22.40
2016,04,20,12,43,22.60
2016,04,20,12,44,22.70
2016,04,20,12,45,22.70
2016,04,20,12,46,22.80
2016,04,20,12,47,22.80
2016,04,20,12,48,22.70
2016,04,20,12,49,22.60
2016,04,20,12,50,22.60
2016,04,20,12,51,22.60
2016,04,20,12,52,22.50
2016,04,20,12,53,22.50
2016,04,20,12,54,22.60
2016,04,20,12,55,22.60
2016,04,20,12,56,22.70
2016,04,20,12,57,22.80
2016,04,20,12,58,22.80
2016,04,20,12,59,22.80
2016,04,20,13,00,22.80
2016,04,20,13,01,22.90
2016,04,20,13,02,22.90
2016,04,20,13,03,23.00
2016,04,20,13,04,23.00
2016,04,20,13,05,23.00
2016,04,20,13,06,23.00
2016,04,20,13,07,23.10
2016,04,20,13,08,23.10
2016,04,20,13,09,23.20
2016,04,20,13,10,23.30
2016,04,20,13,11,23.40
2016,04,20,13,12,23.50
2016,04,20,13,13,23.60
2016,04,20,13,14,23.60
2016,04,20,13,15,23.50
2016,04,20,13,16,23.40
2016,04,20,13,17,23.30
2016,04,20,13,18,23.30
2016,04,20,13,19,23.30
2016,04,20,13,20,23.20
2016,04,20,13,21,23.10
2016,04,20,13,22,23.00
2016,04,20,13,23,23.00
2016,04,20,13,24,22.90
2016,04,20,13,25,22.90
2016,04,20,13,26,23.00
2016,04,20,13,27,23.10
2016,04,20,13,28,23.10
2016,04,20,13,29,23.10
2016,04,20,13,30,23.10
2016,04,20,13,31,23.10
2016,04,20,13,32,23.00
2016,04,20,13,33,23.00
2016,04,20,13,34,23.00
2016,04,20,13,35,23.00
2016,04,20,13,36,23.00
2016,04,20,13,37,23.00
2016,04,20,13,38,23.00
2016,04,20,13,39,23.00
2016,04,20,13,40,23.00
2016,04,20,13,41,23.00
2016,04,20,13,42,23.00
2016,04,20,13,43,23.00
2016,04,20,13,44,23.10
2016,04,20,13,45,23.10
2016,04,20,13,46,23.10
2016,04,20,13,47,23.10
2016,04,20,13,48,23.10
2016,04,20,13,49,23.20
2016,04,20,13,50,23.30
2016,04,20,13,51,23.40
2016,04,20,13,52,23.50
2016,04,20,13,53,23.50
2016,04,20,13,54,23.60
2016,04,20,13,55,23.70
2016,04,20,13,56,23.80
2016,04,20,13,57,23.80
2016,04,20,13,58,23.80
2016,04,20,13,59,23.90
2016,04,20,14,00,23.90
2016,04,20,14,01,23.80
2016,04,20,14,02,23.80
2016,04,20,14,03,23.80
2016,04,20,14,04,23.80
2016,04,20,14,05,23.90
2016,04,20,14,06,23.90
2016,04,20,14,07,24.00
2016,04,20,14,08,24.10
2016,04,20,14,09,24.10
2016,04,20,14,10,24.20
2016,04,20,14,11,24.20
2016,04,20,14,12,24.20
2016,04,20,14,13,24.20
2016,04,20,14,14,24.20
2016,04,20,14,15,24.20
2016,04,20,14,16,24.10
2016,04,20,14,17,24.00
2016,04,20,14,18,23.90
2016,04,20,14,19,23.90
2016,04,20,14,20,23.80
2016,04,20,14,21,23.90
2016,04,20,14,22,23.90
2016,04,20,14,23,23.90
2016,04,20,14,24,23.90
2016,04,20,14,25,23.90
2016,04,20,14,26,23.80
2016,04,20,14,27,23.80
2016,04,20,14,28,23.80
2016,04,20,14,29,23.80
2016,04,20,14,30,23.70
2016,04,20,14,31,23.60
2016,04,20,14,32,23.60
2016,04,20,14,33,23.50
2016,04,20,14,34,23.50
2016,04,20,14,35,23.50
2016,04,20,14,36,23.60
2016,04,20,14,37,23.70
2016,04,20,14,38,23.70
2016,04,20,14,39,23.70
2016,04,20,14,40,23.70
2016,04,20,14,41,23.70
2016,04,20,14,42,23.70
2016,04,20,14,43,23.60
2016,04,20,14,44,23.60
2016,04,20,14,45,23.50
2016,04,20,14,46,23.50
2016,04,20,14,47,23.50
2016,04,20,14,48,23.50
2016,04,20,14,49,23.50
2016,04,20,14,50,23.60
2016,04,20,14,51,23.60
2016,04,20,14,52,23.60
2016,04,20,14,53,23.70
2016,04,20,14,54,23.80
2016,04,20,14,55,23.80
2016,04,20,14,56,23.80
2016,04,20,14,57,23.80
2016,04,20,14,58,23.80
2016,04,20,14,59,23.80
2016,04,20,15,00,23.90
2016,04,20,15,01,23.90
2016,04,20,15,02,23.90
2016,04,20,15,03,23.90
2016,04,20,15,04,23.90
2016,04,20,15,05,23.90
2016,04,20,15,06,23.80
2016,04,20,15,07,23.70
2016,04,20,15,08,23.50
2016,04,20,15,09,23.40
2016,04,20,15,10,23.30
2016,04,20,15,11,23.10
2016,04,20,15,12,23.10
2016,04,20,15,13,23.10
2016,04,20,15,14,23.10
2016,04,20,15,15,23.10
2016,04,20,15,16,23.10
2016,04,20,15,17,23.10
2016,04,20,15,18,23.20
2016,04,20,15,19,23.30
2016,04,20,15,20,23.40
2016,04,20,15,21,23.40
2016,04,20,15,22,23.50
2016,04,20,15,23,23.50
2016,04,20,15,24,23.50
2016,04,20,15,25,23.40
2016,04,20,15,26,23.40
2016,04,20,15,27,23.40
2016,04,20,15,28,23.40
2016,04,20,15,29,23.60
2016,04,20,15,30,23.70
2016,04,20,15,31,23.70
2016,04,20,15,32,23.70
2016,04,20,15,33,23.60
2016,04,20,15,34,23.50
2016,04,20,15,35,23.50
2016,04,20,15,36,23.40
2016,04,20,15,37,23.40
2016,04,20,15,38,23.40
2016,04,20,15,39,23.40
2016,04,20,15,40,23.40
2016,04,20,15,41,23.40
2016,04,20,15,42,23.50
2016,04,20,15,43,23.50
2016,04,20,15,44,23.60
2016,04,20,15,45,23.60
2016,04,20,15,46,23.60
2016,04,20,15,47,23.60
2016,04,20,15,48,23.60
2016,04,20,15,49,23.70
2016,04,20,15,50,23.70
2016,04,20,15,51,23.70
2016,04,20,15,52,23.70
2016,04,20,15,53,23.70
2016,04,20,15,54,23.70
2016,04,20,15,55,23.70
2016,04,20,15,56,23.70
2016,04,20,15,57,23.60
2016,04,20,15,58,23.60
2016,04,20,15,59,23.50
2016,04,20,16,00,23.40
2016,04,20,16,01,23.40
2016,04,20,16,02,23.40
2016,04,20,16,03,23.40
2016,04,20,16,04,23.40
2016,04,20,16,05,23.40
2016,04,20,16,06,23.50
2016,04,20,16,07,23.50
2016,04,20,16,08,23.50
2016,04,20,16,09,23.50
2016,04,20,16,10,23.50
2016,04,20,16,11,23.60
2016,04,20,16,12,23.60
2016,04,20,16,13,23.60
2016,04,20,16,14,23.60
2016,04,20,16,15,23.70
2016,04,20,16,16,23.70
2016,04,20,16,17,23.80
2016,04,20,16,18,23.90
2016,04,20,16,19,23.90
2016,04,20,16,20,23.90
2016,04,20,16,21,24.00
2016,04,20,16,22,24.00
2016,04,20,16,23,24.00
2016,04,20,16,24,24.10
2016,04,20,16,25,24.10
2016,04,20,16,26,24.10
2016,04,20,16,27,24.10
2016,04,20,16,28,24.20
2016,04,20,16,29,24.20
2016,04,20,16,30,24.30
2016,04,20,16,31,24.30
2016,04,20,16,32,24.30
2016,04,20,16,33,24.30
2016,04,20,16,34,24.30
2016,04,20,16,35,24.30
2016,04,20,16,36,24.30
2016,04,20,16,37,24.30
2016,04,20,16,38,24.30
2016,04,20,16,39,24.20
2016,04,20,16,40,24.20
2016,04,20,16,41,24.20
2016,04,20,16,42,24.20
2016,04,20,16,43,24.20
2016,04,20,16,44,24.30
2016,04,20,16,45,24.30
2016,04,20,16,46,24.30
2016,04,20,16,47,24.30
2016,04,20,16,48,24.30
2016,04,20,16,49,24.30
2016,04,20,16,50,24.30
2016,04,20,16,51,24.30
2016,04,20,16,52,24.30
2016,04,20,16,53,24.40
2016,04,20,16,54,24.40
2016,04,20,16,55,24.60
2016,04,20,16,56,24.70
2016,04,20,16,57,24.70
2016,04,20,16,58,24.70
2016,04,20,16,59,24.70
2016,04,20,17,00,24.70
2016,04,20,17,01,24.70
2016,04,20,17,02,24.60
2016,04,20,17,03,24.70
2016,04,20,17,04,24.60
2016,04,20,17,05,24.60
2016,04,20,17,06,24.70
2016,04,20,17,07,24.70
2016,04,20,17,08,24.70
2016,04,20,17,09,24.70
2016,04,20,17,10,24.80
2016,04,20,17,11,24.80
2016,04,20,17,12,24.80
2016,04,20,17,13,24.90
2016,04,20,17,14,24.90
2016,04,20,17,15,24.80
2016,04,20,17,16,24.80
2016,04,20,17,17,24.80
2016,04,20,17,18,24.90
2016,04,20,17,19,24.90